Hourly Data Report for May 28, 2004

TORONTO CITY
ONTARIO

43°40'00.000" N
79°24'00.000" W
112.50 m
6158355
71508
XTO

Download Data

Hourly Data (May 2004)
Hourly Data Report for May 28, 2004
TIME
LST
Temp Definition
°C
Dew Point Definition
°C
Rel Hum Definition
%
Precip. Amount Definition
mm

Wind Dir Definition
10's deg

Wind Spd Definition
km/h
Visibility Definition
km
Stn Press Definition
kPa
Hmdx Definition


Wind Chill Definition


Weather Definition


00:00 14.3 13.3 94   LegendMM LegendMM LegendMM 98.66     LegendNANA
01:00 13.6 12.7 94   LegendMM LegendMM LegendMM 98.68     LegendNANA
02:00 14.4 13.2 92   LegendMM LegendMM LegendMM 98.73     LegendNANA
03:00 14.5 12.5 88   LegendMM LegendMM LegendMM 98.83     LegendNANA
04:00 12.9 10.4 85   LegendMM LegendMM LegendMM 98.89     LegendNANA
05:00 13.0 10.1 83   LegendMM LegendMM LegendMM 99.02     LegendNANA
06:00 13.0 9.6 80   LegendMM LegendMM LegendMM 99.08     LegendNANA
07:00 13.2 9.7 79   LegendMM LegendMM LegendMM 99.15     LegendNANA
08:00 13.6 9.2 75   LegendMM LegendMM LegendMM 99.22     LegendNANA
09:00 14.0 8.5 69   LegendMM LegendMM LegendMM 99.28     LegendNANA
10:00 14.5 7.2 62   LegendMM LegendMM LegendMM 99.33     LegendNANA
11:00 15.1 8.0 63   LegendMM LegendMM LegendMM 99.41     LegendNANA
12:00 14.7 6.7 59   LegendMM LegendMM LegendMM 99.44     LegendNANA
13:00 14.5 7.1 61   LegendMM LegendMM LegendMM 99.49     LegendNANA
14:00 14.6 6.8 59   LegendMM LegendMM LegendMM 99.52     LegendNANA
15:00 14.3 5.3 55   LegendMM LegendMM LegendMM 99.57     LegendNANA
16:00 14.3 3.3 48   LegendMM LegendMM LegendMM 99.59     LegendNANA
17:00 13.6 1.0 42   LegendMM LegendMM LegendMM 99.64     LegendNANA
18:00 13.0 0.4 42   LegendMM LegendMM LegendMM 99.70     LegendNANA
19:00 11.9 0.0 44   LegendMM LegendMM LegendMM 99.80     LegendNANA
20:00 10.8 -0.1 47   LegendMM LegendMM LegendMM 99.88     LegendNANA
21:00 10.4 0.0 48   LegendMM LegendMM LegendMM 99.97     LegendNANA
22:00 9.7 0.3 52   LegendMM LegendMM LegendMM 100.06     LegendNANA
23:00 9.0 0.9 57   LegendMM LegendMM LegendMM 100.10     LegendNANA

Notes on Data Quality.

Legend

  • E = Estimated
  • M = Missing
  • NA = Not Available*
  • [empty] = Indicates an unobserved value
Date modified: